[[{"header":{"parameterUnit":"m.s-1","parameterCategory":1,"la1":30.2991,"la2":30.254,"lo1":-89.0895,"lo2":-89.0444,"dy":0.0017,"dx":0.0017,"nx":28,"ny":28,"refTime":"2026-01-02T03:00:00:Z","depth":0,"parameterNumber":2,"parameterNumberName":"U-component_of_WINDS"},"data":[0,0,0,0,0,0,0,0,0,0,0,0,0,0,0,0,0,0,0,0,0,0,0,0,0,0,0,0,0,0,0,0,0,0,0,0,0,0,0,0,0,0,0,0,0,0,0,0,0,0,0,0,0,0,0,0,0,0,1.7341,1.7342,0,1.7479,1.748,1.7482,1.7496,1.7494,1.7493,1.7491,1.7636,1.7641,1.7646,0,0,0,0,0,0,0,0,0,0,0,0,0,1.7093,1.7097,1.7341,1.7342,1.7344,1.7478,1.748,1.7482,1.7496,1.7494,1.7492,1.7491,1.7634,1.764,1.7647,0,0,0,0,0,0,0,0,0,0,0,0,0,1.7213,1.7099,1.734,1.7367,1.7371,1.7478,1.748,1.7483,1.7496,1.7494,1.7492,1.749,1.7632,1.764,1.7648,1.7739,0,0,1.7671,1.7675,0,0,0,0,0,0,0,0,1.7206,1.7222,1.7361,1.7365,1.737,1.7468,1.7446,1.7569,1.7497,1.7449,1.7491,1.7489,1.7582,1.7594,1.7624,1.7745,1.7752,1.7672,1.7677,1.768,1.7682,0,0,0,0,0,0,0,1.7197,1.7216,1.7395,1.7363,1.7369,1.7373,1.7388,1.7469,1.7526,1.7453,1.7454,1.747,1.7584,1.7617,1.7628,1.7754,1.7672,1.7679,1.7683,1.7687,1.7957,1.7959,0,0,0,0,0,0,1.7184,1.7209,1.7391,1.7399,1.7281,1.738,1.7396,1.7438,1.7525,1.7536,1.7472,1.747,1.7605,1.7619,1.7633,1.7745,1.768,1.7687,1.7692,1.7954,1.7957,1.796,0,0,0,0,0,0,1.7178,1.72,1.7385,1.7305,1.7329,1.7386,1.7434,1.7442,1.7475,1.7539,1.755,1.7495,1.7604,1.7622,1.7712,1.775,1.7691,1.7698,1.7951,1.7955,1.7959,1.7969,0,0,0,0,0,0,1.7171,1.7198,1.7232,1.7305,1.7333,1.7461,1.7436,1.7447,1.7488,1.7487,1.7564,1.7574,1.7603,1.77,1.772,1.776,1.7704,1.7948,1.7953,1.7957,1.7966,1.7973,1.7979,0,0,0,0,0,1.7162,1.723,1.7234,1.7255,1.7377,1.7463,1.7479,1.751,1.7491,1.7527,1.7568,1.7572,1.7743,1.7709,1.7731,1.7774,1.7946,1.7952,1.7957,1.7963,1.7972,1.7979,0,0,0,0,0,0,1.7161,1.724,1.7245,1.7338,1.7394,1.7465,1.751,1.7518,1.7581,1.7577,1.7615,1.7632,1.772,1.7757,1.7718,1.7867,1.7843,1.7853,1.784,1.7849,1.7855,1.7844,1.771,0,0,0,0,0,1.7171,1.7234,1.73,1.7376,1.7404,1.7452,1.7491,1.751,1.757,1.7593,1.7641,1.77,1.7767,1.781,1.7875,1.7972,1.7989,1.8012,1.8019,1.8024,1.8032,1.8086,1.8097,1.7979,1.7978,1.7978,0,0,1.7194,1.7245,1.7282,1.7377,1.7422,1.7487,1.7472,1.7541,1.759,1.7604,1.7691,1.7729,1.7797,1.789,1.7934,1.7923,1.8069,1.8031,1.8035,1.804,1.8093,1.8104,1.8114,1.7982,1.7982,1.7981,0,0,1.7267,1.7312,1.738,1.7426,1.7494,1.7526,1.7542,1.7613,1.7638,1.7726,1.7738,1.7798,1.7912,1.796,1.7999,1.8092,1.8098,1.8112,1.8146,1.8199,1.8208,1.8216,1.8249,1.826,1.812,1.812,1.8121,0,1.7286,1.7383,1.7414,1.7483,1.7525,1.754,1.761,1.7653,1.774,1.7769,1.7756,1.79,1.7947,1.8051,1.8074,1.8106,1.8126,1.8103,1.8204,1.8213,1.8221,1.8252,1.8265,1.8122,1.8122,1.8121,1.8121,0,1.7403,1.747,1.7517,1.7599,1.7646,1.7715,1.7758,1.7803,1.7818,1.7852,1.7942,1.7999,1.8076,1.8103,1.8119,1.821,1.8201,1.8196,1.8172,1.8233,1.8263,1.8275,1.8123,1.8123,1.8123,1.8122,0,0,1.7477,1.7576,1.7593,1.763,1.7707,1.776,1.7831,1.7905,1.7942,1.8002,1.8062,1.8159,1.8154,1.8199,1.8221,1.8267,1.8336,1.8256,1.8258,1.8268,1.844,1.8442,1.8456,1.8342,1.8344,1.8346,1.8434,0,1.7558,1.7682,1.7713,1.7819,1.7881,1.7898,1.7959,1.8014,1.8048,1.8107,1.8146,1.8213,1.8202,1.8229,1.8276,1.8318,1.8371,1.8312,1.8398,1.8401,1.8379,1.8472,1.8475,1.8555,1.8446,1.8448,1.845,0,1.7669,1.7729,1.7841,1.791,1.7938,1.7992,1.8062,1.8119,1.8182,1.8203,1.8253,1.8271,1.8347,1.832,1.8424,1.8383,1.8421,1.8447,1.8451,1.8459,1.8427,1.8481,1.8581,1.8592,1.8469,1.8467,1.8466,0,1.771,1.782,1.7901,1.7933,1.8016,1.8054,1.809,1.8151,1.8194,1.8257,1.8285,1.8356,1.8395,1.845,1.8487,1.8464,1.8589,1.8565,1.8609,1.8608,1.8633,1.863,1.8739,1.8659,1.8659,1.8659,1.8659,0,1.7796,1.7864,1.7921,1.797,1.8047,1.8083,1.8159,1.8196,1.825,1.8308,1.8328,1.8383,1.8429,1.849,1.8521,1.8602,1.862,1.864,1.8647,1.8637,1.8635,1.8661,1.8656,1.8662,1.8661,1.8661,1.866,0,1.7854,1.7896,1.7985,1.8056,1.8076,1.8129,1.8191,1.824,1.8275,1.8349,1.8368,1.8424,1.8497,1.854,1.8633,1.8653,1.8743,1.8749,1.8721,1.8724,1.8765,1.876,1.8893,1.8912,1.8821,1.8822,1.8823,0,1.7906,1.7958,1.8035,1.8074,1.8111,1.8175,1.8219,1.8257,1.8302,1.8378,1.8419,1.8493,1.8554,1.8671,1.872,1.8791,1.8798,1.884,1.8809,1.8797,1.8797,1.8793,1.8798,1.8844,1.8845,1.8846,1.8846,0,1.7992,1.801,1.8071,1.814,1.8191,1.8248,1.8304,1.8336,1.8384,1.8434,1.8508,1.8556,1.865,1.8724,1.8799,1.8839,1.8851,1.8856,1.887,1.8859,1.8841,1.8851,1.8734,1.8852,1.8852,1.8851,1.8851,1.8851,1.8047,1.8094,1.8156,1.8224,1.827,1.8322,1.8372,1.8413,1.8476,1.8554,1.8574,1.8652,1.8716,1.8818,1.886,1.8922,1.8915,1.8936,1.894,1.8944,1.8945,1.8832,1.8937,1.8936,1.8936,1.8936,1.8936,0,1.8134,1.8174,1.8236,1.8314,1.8367,1.8374,1.8437,1.8482,1.855,1.8607,1.8667,1.8753,1.8824,1.888,1.8954,1.8993,1.9001,1.9012,1.9008,1.9017,1.8947,1.8927,1.9004,1.9004,1.9004,1.9004,1.9004,1.9004,1.8184,1.8264,1.8289,1.8393,1.8434,1.8509,1.8544,1.8593,1.8639,1.8734,1.8793,1.8828,1.8886,1.8964,1.9031,1.9045,1.9071,1.9081,1.9096,1.903,1.9022,1.9015,1.8996,1.9086,1.9086,1.9161,1.9161,1.9162]},{"header":{"parameterUnit":"m.s-1","parameterCategory":1,"la1":30.2991,"la2":30.254,"lo1":-89.0895,"lo2":-89.0444,"dy":0.0017,"dx":0.0017,"nx":28,"ny":28,"refTime":"2026-01-02T03:00:00:Z","depth":0,"parameterNumber":3,"parameterNumberName":"V-component_of_WINDS"},"data":[0,0,0,0,0,0,0,0,0,0,0,0,0,0,0,0,0,0,0,0,0,0,0,0,0,0,0,0,0,0,0,0,0,0,0,0,0,0,0,0,0,0,0,0,0,0,0,0,0,0,0,0,0,0,0,0,0,0,2.3831,2.3831,0,2.3871,2.3872,2.3872,2.3847,2.3846,2.3845,2.3844,2.3883,2.3885,2.3887,0,0,0,0,0,0,0,0,0,0,0,0,0,2.373,2.3732,2.3831,2.3831,2.3832,2.3871,2.3872,2.3872,2.3847,2.3846,2.3845,2.3843,2.3882,2.3885,2.3887,0,0,0,0,0,0,0,0,0,0,0,0,0,2.3773,2.3733,2.3831,2.3824,2.3824,2.3871,2.3872,2.3872,2.3848,2.3846,2.3844,2.3842,2.3881,2.3885,2.3888,2.3943,0,0,2.3898,2.3899,0,0,0,0,0,0,0,0,2.377,2.3776,2.3825,2.3825,2.3825,2.3852,2.3851,2.3896,2.3848,2.3839,2.3844,2.3842,2.3874,2.3878,2.3889,2.3945,2.3946,2.3898,2.39,2.3901,2.3902,0,0,0,0,0,0,0,2.3767,2.3774,2.3847,2.3825,2.3825,2.3819,2.3823,2.3859,2.3866,2.3839,2.3838,2.3843,2.3874,2.3886,2.389,2.3947,2.3898,2.3901,2.3903,2.3904,2.4049,2.4051,0,0,0,0,0,0,2.3765,2.3772,2.3845,2.3848,2.3793,2.3822,2.3826,2.3845,2.3865,2.3867,2.3844,2.3842,2.3881,2.3886,2.3891,2.3957,2.3901,2.3904,2.3906,2.4047,2.4049,2.4051,0,0,0,0,0,0,2.3763,2.3772,2.3844,2.381,2.3818,2.3825,2.3847,2.3847,2.3859,2.3869,2.387,2.3856,2.388,2.3887,2.393,2.3958,2.3906,2.3908,2.4045,2.4048,2.405,2.4088,0,0,0,0,0,0,2.376,2.3771,2.3793,2.381,2.382,2.3883,2.3849,2.3849,2.3865,2.3862,2.388,2.3881,2.3879,2.3925,2.3933,2.3961,2.3911,2.4042,2.4046,2.4049,2.4084,2.4092,2.4098,0,0,0,0,0,2.3757,2.3801,2.3794,2.3803,2.3847,2.3885,2.389,2.3887,2.3868,2.3889,2.3895,2.3881,2.3953,2.393,2.3939,2.3968,2.404,2.4045,2.4049,2.4081,2.409,2.4098,0,0,0,0,0,0,2.3786,2.3804,2.3796,2.3847,2.3865,2.388,2.3907,2.3897,2.392,2.3916,2.3911,2.3915,2.3961,2.3969,2.3942,2.4022,2.3994,2.4,2.4015,2.4024,2.4031,2.4028,2.3914,0,0,0,0,0,2.3799,2.3828,2.3842,2.3886,2.3895,2.39,2.3916,2.3912,2.393,2.3937,2.3946,2.3963,2.399,2.4007,2.4032,2.4085,2.4089,2.411,2.4117,2.4122,2.4128,2.4156,2.4165,2.4066,2.4066,2.4065,0,0,2.3825,2.3838,2.3857,2.3892,2.3905,2.3935,2.3906,2.3939,2.3961,2.3942,2.3983,2.3991,2.4009,2.4058,2.408,2.4066,2.4156,2.4128,2.4132,2.4135,2.4161,2.4171,2.4179,2.4069,2.4068,2.4068,0,0,2.3888,2.3901,2.394,2.3953,2.3974,2.3977,2.3986,2.4003,2.4007,2.4049,2.4035,2.4061,2.4107,2.4121,2.4134,2.4202,2.419,2.421,2.4246,2.4274,2.4282,2.4289,2.4313,2.4321,2.4216,2.4216,2.4216,0,2.3918,2.3963,2.396,2.3995,2.401,2.3995,2.4033,2.4046,2.4074,2.4085,2.4069,2.4126,2.4138,2.4189,2.4206,2.4217,2.4226,2.4208,2.4281,2.4288,2.4294,2.4317,2.4326,2.4218,2.4218,2.4217,2.4217,0,2.3999,2.403,2.4058,2.4086,2.4105,2.4141,2.4143,2.4162,2.4157,2.4161,2.4204,2.4217,2.4244,2.4256,2.4251,2.4307,2.4298,2.4282,2.4253,2.4306,2.4327,2.4336,2.4221,2.422,2.422,2.4219,0,0,2.4081,2.4107,2.4117,2.4129,2.4151,2.4175,2.421,2.4237,2.4253,2.4273,2.4302,2.4341,2.4326,2.4341,2.4337,2.4362,2.4414,2.4343,2.4343,2.4355,2.4476,2.4487,2.4498,2.4407,2.4408,2.441,2.4474,0,2.4145,2.4207,2.4205,2.4263,2.4292,2.4278,2.4308,2.4324,2.4329,2.4353,2.4358,2.4386,2.4365,2.4374,2.4397,2.4403,2.4438,2.4398,2.4433,2.4434,2.4428,2.4509,2.4521,2.4581,2.4482,2.4484,2.4485,0,2.4228,2.425,2.4311,2.4328,2.434,2.4368,2.4392,2.4416,2.4434,2.4436,2.4452,2.4445,2.448,2.4451,2.4498,2.4471,2.4485,2.449,2.4492,2.4495,2.4462,2.4513,2.4601,2.461,2.4498,2.4497,2.4496,0,2.4281,2.4327,2.4369,2.438,2.4401,2.4421,2.443,2.4446,2.4463,2.4484,2.4495,2.452,2.4533,2.4552,2.4552,2.4531,2.46,2.4571,2.4601,2.4602,2.4616,2.4615,2.4707,2.4626,2.4626,2.4626,2.4626,0,2.4352,2.439,2.4393,2.4419,2.446,2.4458,2.4499,2.4506,2.4521,2.4547,2.4536,2.4561,2.4559,2.4584,2.4584,2.4623,2.4629,2.4631,2.463,2.4632,2.4631,2.464,2.4636,2.4628,2.4628,2.4627,2.4627,0,2.4419,2.4423,2.4468,2.4484,2.4489,2.4519,2.4533,2.4557,2.4561,2.4594,2.4602,2.4608,2.4637,2.4638,2.4671,2.4671,2.4718,2.4713,2.4713,2.4712,2.4742,2.4739,2.4842,2.4855,2.4767,2.4767,2.4768,0,2.4464,2.4492,2.4512,2.453,2.4541,2.4569,2.4585,2.4584,2.4602,2.4624,2.4646,2.4674,2.4696,2.4742,2.4749,2.4774,2.4769,2.4804,2.4773,2.4774,2.4769,2.4768,2.477,2.481,2.4811,2.4811,2.4812,0,2.4543,2.4544,2.4569,2.4595,2.4616,2.4636,2.4655,2.467,2.467,2.4691,2.4721,2.4738,2.4772,2.48,2.4824,2.4833,2.4823,2.4822,2.483,2.4832,2.483,2.4831,2.4729,2.4819,2.4819,2.4818,2.4818,2.4817,2.46,2.4625,2.4643,2.4671,2.4685,2.4703,2.4727,2.4734,2.4759,2.4787,2.4784,2.4817,2.4834,2.4866,2.4877,2.4902,2.489,2.4902,2.4905,2.4908,2.4911,2.4827,2.4906,2.4906,2.4906,2.4905,2.4905,0,2.4678,2.4689,2.4716,2.4743,2.4765,2.4754,2.4774,2.4793,2.4823,2.4839,2.4862,2.4896,2.4922,2.4931,2.4957,2.4976,2.4971,2.4982,2.4981,2.4983,2.492,2.491,2.4985,2.4985,2.4985,2.4985,2.4985,2.4985,2.4722,2.4763,2.4766,2.4813,2.4824,2.4856,2.4869,2.4885,2.4898,2.4937,2.4959,2.4966,2.4979,2.5006,2.503,2.5031,2.5041,2.5054,2.5054,2.4995,2.4987,2.498,2.497,2.5056,2.5056,2.5114,2.5115,2.5115]}]]